Overview Statistics Trail Chart Weather Telemetry Raw packets
 

This is the latest recevied weather packets stored in our database for station/object N7ZEF. If no packets are shown the sender has not sent any weather packets the latest 10 day(s).

<< 25 26 27 28 29 30 31 >>
Time Temp. Humidity Pressure Rain* Wind** Luminosity Snow
1777789729 7.78° C 34% 1019.2 hPa 0 mm - - -
1777789126 7.22° C 35% 1019.2 hPa 0 mm - - -
1777788525 7.78° C 35% 1019.2 hPa 0 mm - - -
1777787923 7.78° C 35% 1019.3 hPa 0 mm - - -
1777787322 8.89° C 33% 1019.2 hPa 0 mm - - -
1777786720 9.44° C 32% 1019.3 hPa 0 mm - - -
1777786119 9.44° C 31% 1019.3 hPa 0 mm - - -
1777785518 9.44° C 31% 1019.3 hPa 0 mm - - -
1777784916 8.89° C 31% 1019.4 hPa 0 mm - - -
1777784315 8.89° C 31% 1019.4 hPa 0 mm - - -
1777783713 9.44° C 30% 1019.4 hPa 0 mm - - -
1777783112 9.44° C 30% 1019.6 hPa 0 mm - - -
1777782511 9.44° C 30% 1019.7 hPa 0 mm - - -
1777781909 9.44° C 30% 1019.7 hPa 0 mm - - -
1777781308 9.44° C 29% 1019.6 hPa 0 mm - - -
1777780706 10° C 28% 1019.6 hPa 0 mm - - -
1777780105 10° C 27% 1019.4 hPa 0 mm - - -
1777779504 11.11° C 26% 1019.4 hPa 0 mm - - -
1777778902 11.67° C 24% 1019.4 hPa 0 mm - - -
1777778301 12.22° C 22% 1019.3 hPa 0 mm - - -
1777777700 12.78° C 21% 1019.3 hPa 0 mm - - -
1777777098 12.78° C 20% 1019.3 hPa 0 mm - - -
1777776497 12.78° C 19% 1019.3 hPa 0 mm - - -
1777775895 13.33° C 21% 1019.2 hPa 0 mm - - -
1777775294 13.33° C 21% 1019 hPa 0 mm - - -

* Rain latest hour (hover to see other rain measurements)
** Current wind speed in m/s (hover to see current wind gust speed)